This is the latest recevied weather packets stored in our database for station/object SP4MAZ-13. If no packets are shown the sender has not sent any weather packets the latest 10 day(s).
| Time | Temp. | Humidity | Pressure | Rain* | Wind** | Luminosity | Snow |
|---|---|---|---|---|---|---|---|
| 1777747377 | 11.11° C | 70% | 2147.4 hPa | - | - | - | - |
| 1777747073 | 11.11° C | 66% | 2147.4 hPa | - | - | - | - |
| 1777746770 | 11.67° C | 65% | 2147.4 hPa | - | - | - | - |
| 1777746467 | 11.67° C | 66% | 2147.4 hPa | - | - | - | - |
| 1777746163 | 12.22° C | 67% | 2147.4 hPa | - | - | - | - |
| 1777745862 | 12.78° C | 63% | 2147.4 hPa | - | - | - | - |
| 1777745559 | 12.78° C | 68% | 2147.4 hPa | - | - | - | - |
| 1777745255 | 13.33° C | 73% | 2147.4 hPa | - | - | - | - |
| 1777744952 | 13.89° C | 72% | 2147.4 hPa | - | - | - | - |
| 1777744650 | 14.44° C | 72% | 2147.4 hPa | - | - | - | - |
| 1777744347 | 13.89° C | 75% | 2147.4 hPa | - | - | - | - |
| 1777744043 | 14.44° C | 72% | 2147.4 hPa | - | - | - | - |
| 1777743740 | 15.56° C | 66% | 2147.4 hPa | - | - | - | - |
| 1777743436 | 16.11° C | 63% | 2147.4 hPa | - | - | - | - |
| 1777743132 | 16.67° C | 44% | 2147.4 hPa | - | - | - | - |
| 1777742831 | 17.22° C | 44% | 2147.4 hPa | - | - | - | - |
| 1777742529 | 17.78° C | 41% | 2147.4 hPa | - | - | - | - |
| 1777742225 | 17.78° C | 39% | 2147.4 hPa | - | - | - | - |
| 1777741923 | 18.33° C | 41% | 2147.4 hPa | - | - | - | - |
| 1777741620 | 18.33° C | 50% | 2147.4 hPa | - | - | - | - |
| 1777741318 | 18.89° C | 44% | 2147.4 hPa | - | - | - | - |
| 1777741017 | 18.89° C | 41% | 2147.4 hPa | - | - | - | - |
| 1777740715 | 18.89° C | 48% | 2147.4 hPa | - | - | - | - |
| 1777740411 | 18.33° C | 45% | 2147.4 hPa | - | - | - | - |
| 1777740110 | 18.89° C | 44% | 2147.4 hPa | - | - | - | - |
* Rain since midnight (hover to see other rain measurements)
** Current wind speed in m/s (hover to see current wind gust speed)